RRR4224 EGVN-LHBP

Flight info

Callsign RRR4224
Flight time N/A
Altitude 33000
Route CPT DCT LNO DCT FFM DCT OKF DCT BERVA DCT NIT DCT ARFOX ARFO2H
Aircraft A400/H-SDE2E3FGHIJ4J5M1RWXY/LB1D1

Departure

Time 2026-04-22 08:18
Airport RAF Brize Norton (EGVN)

Arrival

Time N/A
Airport Budapest Liszt Ferenc International Airport (LHBP)
Time Latitude Longitude Altitude Speed Heading
2026-04-22 08:01 51.75596 -1.57523 285 ft 0 kts 289°
2026-04-22 08:11 51.75601 -1.57545 285 ft 7 kts 289°
2026-04-22 08:11 51.75599 -1.57660 282 ft 14 kts 225°
2026-04-22 08:12 51.75497 -1.57752 284 ft 19 kts 208°
2026-04-22 08:12 51.75372 -1.57853 285 ft 20 kts 206°
2026-04-22 08:12 51.75291 -1.57928 286 ft 21 kts 207°
2026-04-22 08:12 51.75116 -1.58079 288 ft 22 kts 207°
2026-04-22 08:13 51.75024 -1.58155 289 ft 23 kts 206°
2026-04-22 08:13 51.74887 -1.58275 293 ft 23 kts 208°
2026-04-22 08:13 51.74705 -1.58430 297 ft 22 kts 207°
2026-04-22 08:13 51.74629 -1.58625 297 ft 21 kts 254°
2026-04-22 08:14 51.74587 -1.58864 299 ft 23 kts 254°
2026-04-22 08:14 51.74554 -1.59033 299 ft 24 kts 252°
2026-04-22 08:14 51.74508 -1.59285 300 ft 23 kts 253°
2026-04-22 08:14 51.74461 -1.59537 303 ft 24 kts 253°
2026-04-22 08:15 51.74427 -1.59803 304 ft 24 kts 278°
2026-04-22 08:15 51.74495 -1.60037 306 ft 22 kts 287°
2026-04-22 08:15 51.74484 -1.60201 307 ft 11 kts 274°
2026-04-22 08:15 51.74518 -1.60292 307 ft 9 kts 314°
2026-04-22 08:16 51.74570 -1.60362 310 ft 11 kts 327°
2026-04-22 08:16 51.74625 -1.60328 308 ft 8 kts 63°
2026-04-22 08:16 51.74627 -1.60314 308 ft 0 kts 73°
2026-04-22 08:17 51.74630 -1.60300 309 ft 13 kts 73°
2026-04-22 08:17 51.74755 -1.59620 300 ft 113 kts 73°
2026-04-22 08:17 51.75036 -1.58078 628 ft 157 kts 74°
2026-04-22 08:18 51.75349 -1.56385 1590 ft 158 kts 75°
2026-04-22 08:18 51.75695 -1.54553 2215 ft 184 kts 77°
2026-04-22 08:18 51.76090 -1.52469 2902 ft 202 kts 76°
2026-04-22 08:18 51.76517 -1.50225 3622 ft 217 kts 76°
2026-04-22 08:19 51.76975 -1.47806 4412 ft 231 kts 76°
2026-04-22 08:19 51.77452 -1.45302 5452 ft 235 kts 77°
2026-04-22 08:19 51.77911 -1.42734 6505 ft 240 kts 81°
2026-04-22 08:19 51.77988 -1.40077 7485 ft 243 kts 99°
2026-04-22 08:20 51.77356 -1.37535 8475 ft 250 kts 123°
2026-04-22 08:20 51.76029 -1.35662 9472 ft 261 kts 146°
2026-04-22 08:20 51.74365 -1.34363 10460 ft 270 kts 154°
2026-04-22 08:20 51.72539 -1.33336 11204 ft 284 kts 159°
2026-04-22 08:21 51.70601 -1.32436 11997 ft 293 kts 161°
2026-04-22 08:21 51.68614 -1.31568 12874 ft 299 kts 161°
2026-04-22 08:21 51.66595 -1.30670 13771 ft 303 kts 161°
2026-04-22 08:21 51.64556 -1.29723 14639 ft 307 kts 160°
2026-04-22 08:22 51.62487 -1.28722 15455 ft 313 kts 160°
2026-04-22 08:22 51.60389 -1.27676 16215 ft 320 kts 160°
2026-04-22 08:22 51.58238 -1.26586 16930 ft 329 kts 160°
2026-04-22 08:22 51.56032 -1.25450 17692 ft 337 kts 160°
2026-04-22 08:23 51.53848 -1.23953 18378 ft 346 kts 150°
2026-04-22 08:23 51.51805 -1.21801 18927 ft 356 kts 139°
2026-04-22 08:23 51.50083 -1.18926 19644 ft 357 kts 126°
2026-04-22 08:23 51.48829 -1.15491 20373 ft 360 kts 111°
2026-04-22 08:24 51.48055 -1.11641 21026 ft 365 kts 102°
2026-04-22 08:24 51.47530 -1.07650 21761 ft 368 kts 98°
2026-04-22 08:24 51.47122 -1.03563 22491 ft 373 kts 96°
2026-04-22 08:24 51.46761 -0.99456 23171 ft 379 kts 95°
2026-04-22 08:25 51.46395 -0.95230 23860 ft 385 kts 95°
2026-04-22 08:25 51.46005 -0.90901 24457 ft 390 kts 95°
2026-04-22 08:25 51.45601 -0.86638 25011 ft 394 kts 96°
2026-04-22 08:25 51.45170 -0.82280 25552 ft 399 kts 96°
2026-04-22 08:26 51.44723 -0.77874 26075 ft 403 kts 96°
2026-04-22 08:26 51.44263 -0.73415 26598 ft 407 kts 96°
2026-04-22 08:26 51.43794 -0.68911 27095 ft 411 kts 96°
2026-04-22 08:26 51.43320 -0.64371 27567 ft 415 kts 96°
2026-04-22 08:27 51.42840 -0.59792 28038 ft 419 kts 96°
2026-04-22 08:27 51.42355 -0.55183 28495 ft 422 kts 96°
2026-04-22 08:27 51.41865 -0.50525 28918 ft 426 kts 96°
2026-04-22 08:27 51.41367 -0.45818 29336 ft 429 kts 96°
2026-04-22 08:28 51.40866 -0.41091 29734 ft 432 kts 96°
2026-04-22 08:28 51.40360 -0.36332 30122 ft 435 kts 96°
2026-04-22 08:28 51.39847 -0.31532 30532 ft 437 kts 97°
2026-04-22 08:28 51.39332 -0.26745 30967 ft 436 kts 97°
2026-04-22 08:29 51.38817 -0.21979 31436 ft 435 kts 97°
2026-04-22 08:29 51.38307 -0.17270 31908 ft 434 kts 97°
2026-04-22 08:29 51.37791 -0.12522 32374 ft 433 kts 97°
2026-04-22 08:29 51.37272 -0.07773 32860 ft 431 kts 97°
2026-04-22 08:30 51.36755 -0.03044 33250 ft 430 kts 97°
2026-04-22 08:30 51.36234 0.01696 33349 ft 432 kts 97°
2026-04-22 08:30 51.35191 0.11133 33346 ft 430 kts 97°
2026-04-22 08:31 51.34144 0.20539 33347 ft 429 kts 97°
2026-04-22 08:32 51.32558 0.34651 33526 ft 431 kts 97°
2026-04-22 08:32 51.31495 0.44029 33544 ft 432 kts 97°
2026-04-22 08:33 51.30415 0.53464 33538 ft 431 kts 97°
2026-04-22 08:33 51.29332 0.62855 33510 ft 430 kts 97°
2026-04-22 08:34 51.28242 0.72246 33472 ft 429 kts 97°
2026-04-22 08:34 51.27144 0.81636 33424 ft 430 kts 97°
2026-04-22 08:35 51.26040 0.91016 33375 ft 429 kts 97°
2026-04-22 08:35 51.24936 1.00319 33338 ft 429 kts 96°
2026-04-22 08:36 51.23821 1.09646 33338 ft 427 kts 96°
2026-04-22 08:36 51.22701 1.18961 33342 ft 427 kts 97°
2026-04-22 08:37 51.21573 1.28272 33331 ft 427 kts 97°
2026-04-22 08:37 51.20436 1.37584 33340 ft 428 kts 97°
2026-04-22 08:38 51.19292 1.46894 33338 ft 428 kts 97°
2026-04-22 08:38 51.18139 1.56216 33335 ft 429 kts 97°
2026-04-22 08:39 51.16977 1.65542 33335 ft 429 kts 97°
2026-04-22 08:39 51.15807 1.74867 33335 ft 429 kts 97°
2026-04-22 08:40 51.14628 1.84195 33339 ft 429 kts 97°
2026-04-22 08:40 51.13451 1.93454 33349 ft 428 kts 97°
2026-04-22 08:41 51.12264 2.02707 33345 ft 425 kts 97°